User: anonymous   Login
Location: Unspecified
(0.0000°N, 0.0000°E)
Time: 02:59:00
(UTC+00:00)
Language:

STARLINK-35313 - Orbit

View from above orbital plane
View from above orbital plane
View from above satellite
View from above satellite

Ground track
Ground track

The orbit is defined by the following mean orbital elements,

1 65758U          26145.49743954 +.00000000 +00000-0 +60187-3 0 00002
2 65758  53.1606 336.0901 0001427  89.6901 270.4263 15.30215628    00
Epoch (UTC): 25 May 2026 11:56:18
Eccentricity: 0.0001427
inclination: 53.1606°
perigee height: 474 km
apogee height: 476 km
right ascension of ascending node: 336.0901°
argument of perigee: 89.6901°
revolutions per day: 15.30215628
mean anomaly at epoch: 270.4263°

The dashed part of the orbit path shows where the satellite is in the earth's shadow,  

DLR